Location: Unspecified
(0.0000°N, 0.0000°E)
Time: 14:42:02
(UTC+00:00)

Altair - Pass Details

Date: 30 October 2021
Orbit: 1502 x 1682 km, 47.2° (Epoch: 26 November)

Event Time Altitude Azimuth Distance (km) Brightness Sun altitude
Rises 00:00:31 0° 256° (WSW) 4,644 - -75.6°
Reaches altitude 10° 00:04:54 10° 274° (W) 3,649 - -75.2°
Maximum altitude 00:10:32 18° 313° (NW) 3,072 - -74.7°
Drops below altitude 10° 00:16:12 10° 353° (N) 3,653 - -74.0°
Sets 00:20:40 0° 11° (N) 4,650 - -73.4°
